TimeAKDT,TemperatureF,Dew PointF,Humidity,Sea Level PressureIn,VisibilityMPH,Wind Direction,Wind SpeedMPH,Gust SpeedMPH,PrecipitationIn,Events,Conditions,WindDirDegrees,DateUTC
12:53 AM,46.0,37.9,73,29.79,10.0,SSW,18.4,27.6,0.01,,Overcast,200,2013-10-29 08:53:00
1:53 AM,45.0,37.9,76,29.77,10.0,SSW,27.6,36.8,N/A,,Overcast,210,2013-10-29 09:53:00
2:53 AM,45.0,39.0,80,29.78,10.0,SSW,25.3,33.4,0.00,,Overcast,210,2013-10-29 10:53:00
3:49 AM,44.6,39.2,81,29.77,10.0,SSW,24.2,31.1,0.00,,Overcast,200,2013-10-29 11:49:00
3:53 AM,45.0,39.0,80,29.78,10.0,SSW,20.7,29.9,0.00,,Overcast,200,2013-10-29 11:53:00
4:53 AM,45.0,39.9,82,29.77,8.0,SSW,24.2,32.2,0.00,Rain,Light Rain,210,2013-10-29 12:53:00
5:53 AM,45.0,39.9,82,29.76,10.0,SSW,20.7,28.8,0.01,Rain,Light Rain,210,2013-10-29 13:53:00
6:27 AM,44.6,39.2,81,29.78,10.0,SSW,23.0,-,0.00,,Overcast,210,2013-10-29 14:27:00
6:53 AM,46.0,39.9,79,29.78,10.0,SSW,24.2,-,0.00,,Overcast,210,2013-10-29 14:53:00
7:09 AM,46.4,39.2,76,29.77,10.0,SSW,25.3,33.4,N/A,,Overcast,210,2013-10-29 15:09:00
7:53 AM,46.0,39.9,79,29.78,10.0,SSW,23.0,31.1,N/A,,Overcast,210,2013-10-29 15:53:00
8:25 AM,46.4,39.2,76,29.79,10.0,SSW,23.0,-,N/A,,Overcast,210,2013-10-29 16:25:00
8:53 AM,46.0,39.9,79,29.78,10.0,SSW,18.4,-,N/A,,Overcast,200,2013-10-29 16:53:00
9:10 AM,46.4,39.2,76,29.77,10.0,SSW,21.9,-,N/A,,Overcast,210,2013-10-29 17:10:00
9:53 AM,45.0,39.9,82,29.78,6.0,SSW,20.7,26.5,N/A,,Haze,200,2013-10-29 17:53:00
10:53 AM,46.0,41.0,83,29.80,10.0,SSW,12.7,-,N/A,,Overcast,200,2013-10-29 18:53:00
11:53 AM,46.0,41.0,83,29.80,10.0,SSW,16.1,23.0,N/A,,Overcast,200,2013-10-29 19:53:00
12:41 PM,46.4,41.0,81,29.80,10.0,SSW,20.7,-,N/A,,Mostly Cloudy,210,2013-10-29 20:41:00
12:53 PM,46.9,41.0,80,29.80,10.0,SSW,18.4,-,N/A,,Scattered Clouds,200,2013-10-29 20:53:00
1:53 PM,46.9,42.1,83,29.81,10.0,SSW,16.1,-,N/A,,Mostly Cloudy,200,2013-10-29 21:53:00
2:53 PM,48.0,41.0,77,29.79,10.0,SSW,18.4,-,N/A,,Overcast,210,2013-10-29 22:53:00
3:53 PM,48.0,41.0,77,29.79,10.0,SSW,18.4,-,N/A,,Mostly Cloudy,210,2013-10-29 23:53:00
4:53 PM,46.9,41.0,80,29.79,10.0,SSW,17.3,25.3,N/A,,Overcast,200,2013-10-30 00:53:00
5:53 PM,46.9,41.0,80,29.78,10.0,SSW,15.0,-,N/A,,Overcast,200,2013-10-30 01:53:00
6:00 PM,46.4,42.8,87,29.79,10.0,SSW,15.0,21.9,N/A,,Overcast,210,2013-10-30 02:00:00
6:30 PM,46.4,41.0,81,29.78,10.0,SSW,23.0,-,N/A,,Overcast,210,2013-10-30 02:30:00
6:53 PM,46.9,41.0,80,29.78,10.0,SSW,21.9,28.8,N/A,,Overcast,200,2013-10-30 02:53:00
7:53 PM,48.0,41.0,77,29.77,10.0,SSW,25.3,31.1,N/A,,Overcast,210,2013-10-30 03:53:00
8:53 PM,48.0,41.0,77,29.75,10.0,SSW,20.7,26.5,N/A,,Overcast,210,2013-10-30 04:53:00
9:53 PM,48.0,41.0,77,29.75,10.0,SSW,21.9,-,N/A,,Overcast,200,2013-10-30 05:53:00
10:53 PM,48.0,41.0,77,29.74,10.0,SSW,21.9,28.8,N/A,,Overcast,200,2013-10-30 06:53:00
11:53 PM,48.0,39.9,74,29.72,10.0,SSW,20.7,27.6,N/A,,Overcast,200,2013-10-30 07:53:00